Tracking 28790 objects as of 19-Apr-2024
HD Live streaming from Space Station
objects crossing your sky now

SL-12 R/B(AUX MOTOR)

Track SL-12 R/B(AUX MOTOR) now!
10-day predictions


NORAD ID: 14278
Int'l Code: 1983-084H
Perigee: 303.5 km
Apogee: 15,424.8 km
Inclination: 52.1 °
Period: 281.7 minutes
Semi major axis: 14235 km
RCS: 0.944 m2 (medium)
Launch date: August 10, 1983
Source: Commonwealth of Independent States (former USSR) (CIS)
Launch site: TYURATAM MISSILE AND SPACE COMPLEX (TTMTR)

Note: This is a ROCKET BODY
Your satellite tracking list
Your tracking list is empty




NASA's NSSDC Master Catalog

Two Line Element Set (TLE):
1 14278U 83084H   24107.08223783  .00010794  00000-0  18601-2 0  9991
2 14278  52.0525 272.7142 5311246 248.3778  48.5804  5.11164024694326
Source of the keplerian elements: AFSPC